EW6735 Auckland NZ current weather conditions

sailwx.info

Wind from 008

Air temperature 18.3° C
Dewpoint 16.5° C

Last reported at 2020-Jan-26 10:00 UTC.
Time now 2020-Jan-26 10:40 UTC

Location: S 36°52' E 174°38'.
View on Google Maps.

See reports from other nearby stations

  
Tides and Currents Weather Stations Pressure Air Temp Water Temp Dewpoint Dewpoint Depression Visibility Wind Speed Wind Dir Waves Ship Positions
date/time (UTC)wind fromknots sea level pressurealtimeterstation pressurevisibilityair tempwater tempwave heightnotes
2020-Jan-26 10:00 008 18.3
2020-Jan-26 09:45 008 18.3
2020-Jan-26 09:30 008 18.3
2020-Jan-26 09:00 008 18.9
2020-Jan-26 08:30 008 19.4
2020-Jan-26 08:00 008 20.6
2020-Jan-26 07:45 008 20.6
2020-Jan-26 07:15 066 22.2
2020-Jan-26 06:30 124 25.0
2020-Jan-26 06:00 003 26.7
2020-Jan-26 05:45 124 26.7
2020-Jan-26 05:15 168 0 gusting 4 27.8
2020-Jan-26 04:30 003 0 gusting 5 28.3
2020-Jan-26 04:00 003 0 gusting 6 28.3
2020-Jan-26 03:45 003 0 gusting 4 28.9
2020-Jan-26 03:15 005 1 gusting 6 29.4
2020-Jan-26 03:00 005 1 gusting 5 28.9
2020-Jan-26 02:45 005 0 gusting 4 28.9
2020-Jan-26 02:15 005 0 gusting 4 28.3
2020-Jan-26 01:30 005 0 gusting 4 28.3
2020-Jan-26 01:15 005 1 gusting 6 27.8
2020-Jan-26 00:30 005 0 gusting 4 27.8
2020-Jan-26 00:00 005 27.2
2020-Jan-25 23:45 005 1 gusting 6 27.2
2020-Jan-25 23:15 005 0 gusting 6 26.1
2020-Jan-25 22:30 004 25.6
2020-Jan-25 22:00 127 1 gusting 5 25.0
2020-Jan-25 21:45 140 0 gusting 6 24.4
2020-Jan-25 21:15 156 2 gusting 6 24.4
2020-Jan-25 20:15 003 22.2
2020-Jan-25 19:48 003 0 gusting 5 21.7
2020-Jan-25 19:32 003 21.1
2020-Jan-25 19:17 003 0 gusting 3 20.6
2020-Jan-25 19:01 003 20.6
2020-Jan-25 18:46 003 20.0
2020-Jan-25 18:32 003 20.0
2020-Jan-25 18:16 003 19.4
2020-Jan-25 18:01 003 18.9
2020-Jan-25 17:46 003 18.9
2020-Jan-25 17:32 003 19.4
2020-Jan-25 17:16 003 18.9
2020-Jan-25 17:02 003 18.9
2020-Jan-25 16:46 003 18.9
2020-Jan-25 16:30 003 18.9
2020-Jan-25 16:16 003 18.9
2020-Jan-25 16:01 003 18.9
2020-Jan-25 15:46 003 19.4
2020-Jan-25 15:30 003 19.4
2020-Jan-25 15:15 003 19.4
2020-Jan-25 15:02 003 19.4
2020-Jan-25 14:46 003 19.4
2020-Jan-25 14:30 003 19.4
2020-Jan-25 14:16 003 19.4
2020-Jan-25 14:01 003 19.4
2020-Jan-25 13:46 003 19.4
2020-Jan-25 13:31 003 19.4
2020-Jan-25 13:15 003 19.4
2020-Jan-25 13:00 003 19.4
2020-Jan-25 12:45 003 20.0
2020-Jan-25 12:30 003 20.0
2020-Jan-25 12:15 003 20.0
2020-Jan-25 12:00 003 19.4
2020-Jan-25 11:45 003 19.4
2020-Jan-25 11:30 003 0 gusting 3 19.4
2020-Jan-25 11:15 003 19.4
2020-Jan-25 11:00 003 20.0
2020-Jan-25 10:45 003 20.0
2020-Jan-25 10:30 003 20.6
2020-Jan-25 10:15 003 1 gusting 6 21.1
2020-Jan-25 09:45 003 21.1
2020-Jan-25 09:15 003 21.1
2020-Jan-25 08:45 003 21.1
2020-Jan-25 08:00 003 21.1
2020-Jan-25 06:45 003 22.2
2020-Jan-25 06:00 003 0 gusting 5 25.6
2020-Jan-25 05:30 003 1 gusting 6 26.1
2020-Jan-25 05:15 003 0 gusting 5 26.7
2020-Jan-25 04:45 003 0 gusting 4 26.7
2020-Jan-25 04:30 003 1 gusting 5 26.7
2020-Jan-25 04:00 003 1 gusting 6 27.2
2020-Jan-25 03:30 003 27.8
2020-Jan-25 03:15 003 1 gusting 5 27.8
2020-Jan-25 03:00 003 0 gusting 5 27.8
2020-Jan-25 02:30 003 2 gusting 6 27.2
2020-Jan-25 02:15 003 0 gusting 6 27.2
2020-Jan-25 01:45 003 0 gusting 6 28.3
2020-Jan-25 01:00 003 0 gusting 4 27.8
2020-Jan-25 00:30 003 0 gusting 6 27.2
2020-Jan-25 00:15 100 0 gusting 6 27.2
2020-Jan-25 00:00 003 0 gusting 4 26.7
2020-Jan-24 23:30 113 0 gusting 6 26.1
2020-Jan-24 23:15 121 0 gusting 4 26.1
2020-Jan-24 22:45 007 0 gusting 2 26.1
2020-Jan-24 22:00 216 0 gusting 3 24.4
2020-Jan-24 21:45 342 23.9
2020-Jan-24 21:30 005 22.8
2020-Jan-24 21:15 005 22.2
2020-Jan-24 20:45 005 21.1
2020-Jan-24 20:00 005 20.6
2020-Jan-24 19:30 005 18.3
2020-Jan-24 19:15 005 17.2
2020-Jan-24 18:45 006 16.1
2020-Jan-24 17:30 005 15.6
2020-Jan-24 17:02 005 15.0
2020-Jan-24 16:30 006 15.6
2020-Jan-24 16:15 006 15.0
2020-Jan-24 15:45 005 15.0
2020-Jan-24 15:15 006 15.0
2020-Jan-24 14:45 006 15.0
2020-Jan-24 14:00 005 15.0
2020-Jan-24 13:30 005 15.6
2020-Jan-24 13:15 006 16.1
2020-Jan-24 12:45 005 16.1
2020-Jan-24 12:00 005 16.7
2020-Jan-24 11:30 005 16.7
2020-Jan-24 11:15 005 16.7
2020-Jan-24 10:45 005 17.2